This is the latest recevied weather packets stored in our database for station/object K5YNC. If no packets are shown the sender has not sent any weather packets the latest 10 day(s).
| Time | Temp. | Humidity | Pressure | Rain* | Wind** | Luminosity | Snow |
|---|---|---|---|---|---|---|---|
| 1777410709 | 23.89° C | 78% | 1009.8 hPa | 0 mm | - | 164 W/m² | - |
| 1777410404 | 24.44° C | 77% | 1009.8 hPa | 0 mm | - | 226 W/m² | - |
| 1777410103 | 24.44° C | 75% | 1009.6 hPa | 0 mm | - | 368 W/m² | - |
| 1777409798 | 25° C | 75% | 1010.3 hPa | 0 mm | - | 638 W/m² | - |
| 1777409494 | 25° C | 76% | 1010.9 hPa | 0 mm | - | 740 W/m² | - |
| 1777409190 | 25° C | 82% | 1011.4 hPa | 1.78 mm | - | 749 W/m² | - |
| 1777408886 | 25° C | 87% | 1011.1 hPa | 1.78 mm | - | 278 W/m² | - |
| 1777408582 | 25° C | 86% | 1010.9 hPa | 0 mm | - | 204 W/m² | - |
| 1777408278 | 25° C | 87% | 1010.9 hPa | 1.27 mm | - | 157 W/m² | - |
| 1777407978 | 25° C | 87% | 1011.2 hPa | 1.27 mm | - | 133 W/m² | - |
| 1777407676 | 25° C | 86% | 1010.5 hPa | 1.78 mm | - | 116 W/m² | - |
| 1777407376 | 25.56° C | 86% | 1010.9 hPa | 1.78 mm | - | 85 W/m² | - |
| 1777407071 | 25.56° C | 85% | 1011.2 hPa | 0 mm | - | 49 W/m² | - |
| 1777406767 | 25.56° C | 84% | 1011.1 hPa | 0 mm | - | 34 W/m² | - |
| 1777406467 | 25.56° C | 84% | 1010.7 hPa | 0 mm | - | 24 W/m² | - |
| 1777406161 | 25.56° C | 83% | 1010.2 hPa | 0 mm | - | 26 W/m² | - |
| 1777405857 | 26.11° C | 83% | 1010.3 hPa | 0 mm | - | 27 W/m² | - |
| 1777405554 | 25.56° C | 83% | 1011.2 hPa | 0 mm | - | 26 W/m² | - |
| 1777405251 | 26.11° C | 83% | 1010.6 hPa | 0 mm | - | 27 W/m² | - |
| 1777404949 | 26.11° C | 83% | 1010.3 hPa | 0 mm | - | 32 W/m² | - |
| 1777404646 | 26.11° C | 83% | 1010.3 hPa | 0 mm | - | 29 W/m² | - |
| 1777404342 | 26.11° C | 83% | 1010.2 hPa | 0 mm | - | 26 W/m² | - |
| 1777404039 | 26.11° C | 83% | 1010.3 hPa | 0 mm | - | 28 W/m² | - |
| 1777403734 | 26.11° C | 82% | 1010.4 hPa | 0 mm | - | 32 W/m² | - |
| 1777403433 | 26.11° C | 82% | 1010.7 hPa | 0 mm | - | 35 W/m² | - |
* Rain latest hour (hover to see other rain measurements)
** Current wind speed in m/s (hover to see current wind gust speed)